#�ϑ�����,���ϕ���,���ϕ���,�ő啗��,�ő啗����������,�ő�u�ԕ���,�ő�u�ԕ�����������
#(�N����),(m/s)   ,(16����),(m/s)   ,(16����)        ,(m/s)       ,(16����)            
2018/8/22 0:01,2.5,7,2.6,7,5.5,9
2018/8/22 0:02,2.5,7,2.5,7,4.1,7
2018/8/22 0:03,2.6,7,2.6,7,4.9,6
2018/8/22 0:04,2.6,7,2.6,7,3.5,6
2018/8/22 0:05,2.7,7,2.7,7,3.1,7
2018/8/22 0:06,2.6,7,2.7,7,2.7,5
2018/8/22 0:07,2.5,7,2.6,7,3,7
2018/8/22 0:08,2.2,7,2.5,7,4.2,6
2018/8/22 0:09,2.4,7,2.4,7,6.8,7
2018/8/22 0:10,2.5,7,2.6,7,7.1,7
2018/8/22 0:11,2.7,7,2.7,7,6.7,4
2018/8/22 0:12,2.7,6,2.8,7,6.1,6
2018/8/22 0:13,2.9,6,2.9,6,5.1,6
2018/8/22 0:14,3,6,3,6,5.5,7
2018/8/22 0:15,3.1,6,3.1,6,5,7
2018/8/22 0:16,3.3,6,3.3,6,4.4,7
2018/8/22 0:17,3.3,6,3.4,6,3.5,4
2018/8/22 0:18,3.3,6,3.3,6,3.7,6
2018/8/22 0:19,3.2,6,3.3,6,3.8,6
2018/8/22 0:20,3,6,3.2,6,3.2,6
2018/8/22 0:21,2.9,6,3,6,3.7,6
2018/8/22 0:22,2.7,6,2.8,6,3.5,5
2018/8/22 0:23,2.6,6,2.7,6,4.7,5
2018/8/22 0:24,2.6,6,2.6,6,4.1,6
2018/8/22 0:25,2.5,6,2.5,6,4.2,7
2018/8/22 0:26,2.5,6,2.5,6,5.7,7
2018/8/22 0:27,2.5,6,2.5,6,4.7,8
2018/8/22 0:28,2.5,6,2.6,6,3,6
2018/8/22 0:29,2.4,6,2.5,6,2.5,7
2018/8/22 0:30,2.5,6,2.5,6,4.5,5
2018/8/22 0:31,2.4,6,2.5,6,3.5,5
2018/8/22 0:32,2.5,7,2.5,6,4.4,6
2018/8/22 0:33,2.3,7,2.5,6,1.8,6
2018/8/22 0:34,2.2,7,2.3,6,2.1,5
2018/8/22 0:35,2.1,6,2.2,6,3.2,5
2018/8/22 0:36,2,6,2.1,6,3.2,6
2018/8/22 0:37,1.9,6,1.9,6,3,7
2018/8/22 0:38,1.9,6,1.9,6,2.7,7
2018/8/22 0:39,1.9,6,1.9,6,2.6,5
2018/8/22 0:40,1.8,6,1.9,6,3.5,6
2018/8/22 0:41,1.8,6,1.9,6,5,6
2018/8/22 0:42,1.8,6,1.8,7,3.2,6
2018/8/22 0:43,1.9,6,1.9,7,3.9,7
2018/8/22 0:44,2,6,2,7,2.7,8
2018/8/22 0:45,1.9,6,2,6,2.1,6
2018/8/22 0:46,1.8,6,1.9,6,2.1,5
2018/8/22 0:47,1.9,6,1.9,6,3.1,6
2018/8/22 0:48,1.8,6,1.9,6,3.1,6
2018/8/22 0:49,1.7,7,1.8,6,1.4,9
2018/8/22 0:50,1.7,7,1.7,6,2.7,6
2018/8/22 0:51,1.6,7,1.7,6,2.6,6
2018/8/22 0:52,1.6,6,1.6,6,3.2,5
2018/8/22 0:53,1.8,6,1.8,6,6.2,7
2018/8/22 0:54,2.1,6,2.1,6,7.7,7
2018/8/22 0:55,2.4,6,2.4,6,5.1,7
2018/8/22 0:56,2.4,6,2.4,6,2.6,8
2018/8/22 0:57,2.5,6,2.5,6,3.9,5
2018/8/22 0:58,2.5,6,2.5,6,2.2,4
2018/8/22 0:59,2.7,6,2.7,6,3,6
2018/8/22 1:00,2.6,6,2.7,6,3.2,5
2018/8/22 1:01,2.7,6,2.7,6,2.9,5
2018/8/22 1:02,2.7,6,2.7,6,3.8,7
2018/8/22 1:03,2.5,6,2.7,6,3,5
2018/8/22 1:04,2.2,6,2.5,6,3.1,6
2018/8/22 1:05,2,6,2.2,6,2.5,7
2018/8/22 1:06,1.9,6,2,6,2.6,8
2018/8/22 1:07,1.8,6,1.9,6,2.7,5
2018/8/22 1:08,1.7,6,1.8,6,1.5,7
2018/8/22 1:09,1.7,6,1.7,6,2.4,5
2018/8/22 1:10,1.9,6,1.9,6,5,5
2018/8/22 1:11,2,6,2,6,5.1,5
2018/8/22 1:12,2.1,6,2.1,6,5,7
2018/8/22 1:13,2.4,6,2.4,6,7.8,7
2018/8/22 1:14,2.4,6,2.4,6,4.9,8
2018/8/22 1:15,2.6,7,2.6,6,5.8,7
2018/8/22 1:16,2.8,7,2.8,6,4.5,8
2018/8/22 1:17,2.9,6,2.9,7,5.2,7
2018/8/22 1:18,3.3,6,3.3,6,7.4,7
2018/8/22 1:19,3.3,7,3.3,6,3.7,6
2018/8/22 1:20,3.2,7,3.3,6,5.7,7
2018/8/22 1:21,3.2,7,3.2,6,4.9,8
2018/8/22 1:22,3.2,7,3.2,6,4.5,6
2018/8/22 1:23,3.1,7,3.2,6,6.9,6
2018/8/22 1:24,3.1,7,3.1,6,3.5,3
2018/8/22 1:25,2.9,7,3,6,3.1,7
2018/8/22 1:26,3,6,3,6,5.7,6
2018/8/22 1:27,3.1,6,3.1,6,8.6,8
2018/8/22 1:28,2.9,6,3,6,6.1,6
2018/8/22 1:29,3.1,6,3.1,7,6,5
2018/8/22 1:30,3.3,6,3.3,6,7.2,6
2018/8/22 1:31,3.4,6,3.4,6,5.7,6
2018/8/22 1:32,3.5,6,3.5,6,5.6,6
2018/8/22 1:33,3.4,6,3.5,6,4.8,5
2018/8/22 1:34,3.3,6,3.4,6,1.9,8
2018/8/22 1:35,3.3,6,3.3,6,3.9,6
2018/8/22 1:36,3.3,6,3.3,6,4.4,4
2018/8/22 1:37,3.1,6,3.3,6,4.3,6
2018/8/22 1:38,3.1,6,3.1,6,5.6,8
2018/8/22 1:39,2.9,6,3.1,6,5.2,8
2018/8/22 1:40,2.6,6,2.8,6,2.9,7
2018/8/22 1:41,2.5,6,2.5,6,4.5,7
2018/8/22 1:42,2.4,6,2.4,6,3.8,7
2018/8/22 1:43,2.3,7,2.4,6,4.2,5
2018/8/22 1:44,2.3,6,2.3,6,4.5,5
2018/8/22 1:45,2.3,6,2.3,6,5.7,8
2018/8/22 1:46,2.3,6,2.3,6,5.2,5
2018/8/22 1:47,2.3,6,2.3,6,3.6,6
2018/8/22 1:48,2.3,6,2.3,6,3.9,6
2018/8/22 1:49,2.4,6,2.4,6,3.9,6
2018/8/22 1:50,2.5,6,2.5,6,4.5,4
2018/8/22 1:51,2.5,6,2.5,6,4.2,5
2018/8/22 1:52,2.4,6,2.5,6,3.3,6
2018/8/22 1:53,2.5,6,2.5,6,5.6,4
2018/8/22 1:54,2.7,6,2.7,6,4.8,6
2018/8/22 1:55,2.7,6,2.7,6,4.9,7
2018/8/22 1:56,2.5,6,2.7,6,2.9,6
2018/8/22 1:57,2.5,6,2.5,6,3.2,4
2018/8/22 1:58,2.5,6,2.5,6,3.7,4
2018/8/22 1:59,2.5,5,2.5,6,3.8,5
2018/8/22 2:00,2.4,5,2.5,6,3.1,5
2018/8/22 2:01,2.5,5,2.5,6,5.5,6
2018/8/22 2:02,2.5,5,2.5,6,4.1,5
2018/8/22 2:03,2.5,5,2.6,6,4.3,5
2018/8/22 2:04,2.5,5,2.6,6,4.2,5
2018/8/22 2:05,2.5,5,2.5,6,3.7,3
2018/8/22 2:06,2.5,5,2.5,5,3.2,6
2018/8/22 2:07,2.6,5,2.6,5,4.3,6
2018/8/22 2:08,2.6,5,2.6,5,4.1,6
2018/8/22 2:09,2.6,6,2.6,5,3.3,6
2018/8/22 2:10,2.7,6,2.7,6,4.9,6
2018/8/22 2:11,2.6,6,2.7,6,3.5,7
2018/8/22 2:12,2.7,6,2.7,6,5.5,5
2018/8/22 2:13,2.7,6,2.8,6,3.9,5
2018/8/22 2:14,2.6,6,2.7,6,3.1,5
2018/8/22 2:15,2.6,6,2.6,6,3.8,6
2018/8/22 2:16,2.8,6,2.8,6,4.2,6
2018/8/22 2:17,2.9,6,2.9,6,5.2,6
2018/8/22 2:18,2.9,6,2.9,6,5.4,6
2018/8/22 2:19,2.9,6,2.9,6,4.1,6
2018/8/22 2:20,2.8,6,2.9,6,3.3,5
2018/8/22 2:21,2.6,6,2.8,6,2.7,6
2018/8/22 2:22,2.5,6,2.6,6,3.9,6
2018/8/22 2:23,2.6,6,2.6,6,6.9,5
2018/8/22 2:24,2.7,6,2.7,6,5.1,6
2018/8/22 2:25,2.8,6,2.8,6,4.7,6
2018/8/22 2:26,2.8,6,2.8,6,3.2,6
2018/8/22 2:27,2.5,6,2.7,6,2.2,6
2018/8/22 2:28,2.4,6,2.5,6,4.2,5
2018/8/22 2:29,2.5,6,2.5,6,5.7,6
2018/8/22 2:30,2.7,6,2.7,5,6.1,6
2018/8/22 2:31,2.9,6,2.9,6,5.6,8
2018/8/22 2:32,3,6,3,6,6,6
2018/8/22 2:33,2.9,6,2.9,6,5.8,6
2018/8/22 2:34,2.7,6,2.9,6,3.9,7
2018/8/22 2:35,2.7,6,2.7,6,5,7
2018/8/22 2:36,2.8,7,2.8,6,5,7
2018/8/22 2:37,3,7,3,6,5.5,6
2018/8/22 2:38,3.1,7,3.2,7,6.2,6
2018/8/22 2:39,2.9,7,3.1,7,2.9,5
2018/8/22 2:40,2.8,6,2.9,7,4.4,5
2018/8/22 2:41,2.8,6,2.8,7,3.7,6
2018/8/22 2:42,2.7,6,2.7,7,5.6,5
2018/8/22 2:43,2.9,6,2.9,7,6.8,4
2018/8/22 2:44,3.1,6,3.1,7,5.5,5
2018/8/22 2:45,3.2,6,3.2,7,4.9,7
2018/8/22 2:46,3,6,3.2,7,3.2,7
2018/8/22 2:47,2.9,6,3,7,4.4,6
2018/8/22 2:48,2.7,6,2.9,6,3.8,4
2018/8/22 2:49,3,6,3,6,7.2,7
2018/8/22 2:50,3,6,3,6,6.2,7
2018/8/22 2:51,3.1,6,3.1,6,5.4,6
2018/8/22 2:52,3.1,6,3.1,6,4.3,7
2018/8/22 2:53,3,6,3.1,6,6,6
2018/8/22 2:54,2.8,6,3,6,4.4,7
2018/8/22 2:55,2.8,6,2.8,6,4.5,5
2018/8/22 2:56,2.9,6,2.9,6,5.2,6
2018/8/22 2:57,2.8,6,2.9,6,3.7,7
2018/8/22 2:58,2.8,6,2.8,6,2.7,4
2018/8/22 2:59,2.6,6,2.8,6,3.3,6
2018/8/22 3:00,2.6,6,2.7,6,4.3,6
2018/8/22 3:01,2.6,6,2.6,6,3.9,5
2018/8/22 3:02,2.6,6,2.6,6,3.3,5
2018/8/22 3:03,2.5,6,2.6,6,4.4,5
2018/8/22 3:04,2.6,5,2.6,6,6.1,5
2018/8/22 3:05,2.7,5,2.7,6,5.7,5
2018/8/22 3:06,2.7,5,2.7,6,4.2,4
2018/8/22 3:07,2.9,5,2.9,5,5.8,5
2018/8/22 3:08,3.2,5,3.2,5,7,6
2018/8/22 3:09,3.1,5,3.2,5,2.6,5
2018/8/22 3:10,3,5,3.1,5,3.2,5
2018/8/22 3:11,3.1,5,3.1,5,4.9,5
2018/8/22 3:12,3.1,5,3.1,5,4.3,6
2018/8/22 3:13,3.1,5,3.1,5,5,7
2018/8/22 3:14,2.9,5,3.1,5,3.5,5
2018/8/22 3:15,2.9,5,2.9,5,4.7,6
2018/8/22 3:16,2.8,5,2.8,5,5,4
2018/8/22 3:17,2.8,5,2.8,5,6.8,4
2018/8/22 3:18,2.7,5,2.8,5,4.4,5
2018/8/22 3:19,2.8,6,2.8,5,3.3,7
2018/8/22 3:20,2.8,6,2.8,5,4.1,6
2018/8/22 3:21,2.7,6,2.8,5,5.6,4
2018/8/22 3:22,2.8,6,2.8,5,4.1,4
2018/8/22 3:23,2.9,6,2.9,5,6.8,5
2018/8/22 3:24,3.1,5,3.1,5,6.3,6
2018/8/22 3:25,3.2,5,3.2,5,7.7,6
2018/8/22 3:26,3.3,6,3.3,5,6.5,7
2018/8/22 3:27,3.1,6,3.3,5,4.1,6
2018/8/22 3:28,3.1,6,3.1,5,4.3,6
2018/8/22 3:29,3.1,6,3.1,5,3.5,6
2018/8/22 3:30,3.2,6,3.2,5,5,5
2018/8/22 3:31,3.2,6,3.3,5,5.4,10
2018/8/22 3:32,3.1,6,3.2,5,4.4,8
2018/8/22 3:33,3,6,3.1,5,4.1,6
2018/8/22 3:34,2.8,6,3,5,4.2,7
2018/8/22 3:35,2.6,6,2.8,5,3.6,7
2018/8/22 3:36,2.5,6,2.6,6,2.5,6
2018/8/22 3:37,2.4,6,2.4,6,3.5,5
2018/8/22 3:38,2.4,6,2.4,6,5.8,8
2018/8/22 3:39,2.5,6,2.5,6,4.4,8
2018/8/22 3:40,2.4,6,2.5,6,3.9,7
2018/8/22 3:41,2.5,6,2.5,6,5.8,7
2018/8/22 3:42,2.6,6,2.6,6,4.7,6
2018/8/22 3:43,2.6,6,2.6,6,4.5,7
2018/8/22 3:44,2.5,6,2.6,6,3.6,8
2018/8/22 3:45,2.6,6,2.6,6,3.8,6
2018/8/22 3:46,2.8,6,2.8,6,7,9
2018/8/22 3:47,3,6,3,6,4.8,6
2018/8/22 3:48,2.9,6,3,6,3.7,6
2018/8/22 3:49,2.9,6,2.9,6,3.8,4
2018/8/22 3:50,2.7,6,2.8,6,2.6,5
2018/8/22 3:51,2.6,6,2.7,6,4.4,6
2018/8/22 3:52,2.6,6,2.7,6,5.8,6
2018/8/22 3:53,2.7,6,2.7,6,5.2,6
2018/8/22 3:54,2.8,6,2.8,6,5.2,6
2018/8/22 3:55,2.7,6,2.8,6,3.6,4
2018/8/22 3:56,2.6,6,2.7,6,3.2,3
2018/8/22 3:57,2.4,5,2.5,6,3.8,4
2018/8/22 3:58,2.4,5,2.4,6,3.7,5
2018/8/22 3:59,2.5,5,2.5,6,4.8,6
2018/8/22 4:00,2.6,5,2.6,6,4.3,6
2018/8/22 4:01,2.6,5,2.7,6,3.1,5
2018/8/22 4:02,2.5,5,2.6,6,3.5,5
2018/8/22 4:03,2.4,5,2.5,6,3.1,5
2018/8/22 4:04,2.2,5,2.4,6,2.6,6
2018/8/22 4:05,2.2,5,2.3,6,2.6,6
2018/8/22 4:06,2.2,5,2.2,5,3.5,5
2018/8/22 4:07,2.1,6,2.2,5,3.9,6
2018/8/22 4:08,2.1,6,2.1,5,3.5,3
2018/8/22 4:09,2.2,6,2.2,5,5.4,6
2018/8/22 4:10,2.2,6,2.2,5,4.4,7
2018/8/22 4:11,2.3,5,2.3,5,3.6,4
2018/8/22 4:12,2.3,5,2.4,5,3.7,6
2018/8/22 4:13,2.3,5,2.3,5,3.1,5
2018/8/22 4:14,2.4,5,2.4,5,4.8,6
2018/8/22 4:15,2.6,5,2.6,5,5.4,5
2018/8/22 4:16,2.7,5,2.7,5,4.3,4
2018/8/22 4:17,2.8,5,2.8,5,4.3,6
2018/8/22 4:18,2.9,5,2.9,5,5.5,4
2018/8/22 4:19,2.8,5,2.9,5,3.8,4
2018/8/22 4:20,2.8,5,2.8,5,5.5,7
2018/8/22 4:21,2.9,5,2.9,5,6.2,5
2018/8/22 4:22,2.8,5,2.9,5,2.6,2
2018/8/22 4:23,2.8,5,2.8,5,2.6,5
2018/8/22 4:24,2.7,5,2.8,5,3.1,6
2018/8/22 4:25,2.7,5,2.7,5,5.4,6
2018/8/22 4:26,2.8,5,2.8,5,6.4,7
2018/8/22 4:27,2.8,5,2.8,5,4.4,4
2018/8/22 4:28,2.7,5,2.8,5,4.2,7
2018/8/22 4:29,2.7,5,2.7,5,3.6,4
2018/8/22 4:30,2.6,5,2.7,5,3.8,5
2018/8/22 4:31,2.5,5,2.6,5,4.2,5
2018/8/22 4:32,2.6,5,2.6,5,3.6,5
2018/8/22 4:33,2.7,5,2.7,5,4.4,5
2018/8/22 4:34,2.8,5,2.8,5,3.9,6
2018/8/22 4:35,2.7,5,2.8,5,4.7,4
2018/8/22 4:36,2.6,5,2.7,5,4.1,4
2018/8/22 4:37,2.7,5,2.7,5,6,6
2018/8/22 4:38,2.8,5,2.8,5,4.4,6
2018/8/22 4:39,2.8,5,2.8,5,4.7,6
2018/8/22 4:40,2.8,5,2.8,5,4.8,5
2018/8/22 4:41,2.9,5,2.9,5,6.1,6
2018/8/22 4:42,3.1,5,3.1,5,7.7,5
2018/8/22 4:43,3.3,6,3.3,6,7.9,6
2018/8/22 4:44,3.4,6,3.4,6,6.1,6
2018/8/22 4:45,3.7,6,3.7,6,6.1,4
2018/8/22 4:46,3.7,6,3.7,6,5.1,5
2018/8/22 4:47,3.5,6,3.7,6,3.1,4
2018/8/22 4:48,3.5,5,3.5,6,3.7,7
2018/8/22 4:49,3.3,5,3.5,6,3.8,6
2018/8/22 4:50,3.3,5,3.3,6,3.7,3
2018/8/22 4:51,3.1,5,3.2,6,4.1,5
2018/8/22 4:52,2.9,5,3.1,6,3,5
2018/8/22 4:53,2.7,5,2.8,6,5.2,6
2018/8/22 4:54,2.8,5,2.8,6,5.7,6
2018/8/22 4:55,2.6,5,2.7,6,3.8,6
2018/8/22 4:56,2.5,5,2.5,6,4.1,5
2018/8/22 4:57,2.7,5,2.7,6,6.1,6
2018/8/22 4:58,2.6,5,2.7,5,3.5,4
2018/8/22 4:59,2.5,6,2.6,5,1.9,6
2018/8/22 5:00,2.5,6,2.5,5,3.2,5
2018/8/22 5:01,2.4,6,2.4,5,3.1,5
2018/8/22 5:02,2.4,6,2.4,5,3.3,7
2018/8/22 5:03,2.5,6,2.5,5,5.2,6
2018/8/22 5:04,2.4,6,2.5,5,5.4,4
2018/8/22 5:05,2.6,5,2.6,5,6.4,6
2018/8/22 5:06,2.7,5,2.7,5,7.5,4
2018/8/22 5:07,2.7,5,2.7,5,5.4,6
2018/8/22 5:08,2.8,5,2.8,5,4.2,6
2018/8/22 5:09,2.9,5,2.9,5,3.2,2
2018/8/22 5:10,2.9,5,2.9,5,2.7,6
2018/8/22 5:11,2.9,5,2.9,5,2.6,5
2018/8/22 5:12,2.8,5,2.9,5,2.1,4
2018/8/22 5:13,2.6,5,2.8,5,3,4
2018/8/22 5:14,2.5,5,2.7,5,3.6,4
2018/8/22 5:15,2.3,5,2.5,5,5.2,6
2018/8/22 5:16,2.3,5,2.3,5,4.7,6
2018/8/22 5:17,2.3,5,2.3,5,5,5
2018/8/22 5:18,2.4,5,2.4,5,5.1,4
2018/8/22 5:19,2.5,5,2.5,5,4.8,4
2018/8/22 5:20,2.8,5,2.8,5,8.4,7
2018/8/22 5:21,3.2,5,3.2,5,7.9,6
2018/8/22 5:22,3.5,5,3.5,5,6.2,5
2018/8/22 5:23,3.7,5,3.7,5,6.1,6
2018/8/22 5:24,3.9,5,3.9,5,7.4,3
2018/8/22 5:25,4,5,4,5,8.2,4
2018/8/22 5:26,4.3,5,4.3,5,7.1,5
2018/8/22 5:27,4.3,5,4.3,5,6.2,6
2018/8/22 5:28,4.3,5,4.3,5,5.5,5
2018/8/22 5:29,4.4,5,4.4,5,5.2,6
2018/8/22 5:30,4,5,4.3,5,4.4,6
2018/8/22 5:31,3.8,5,4,5,3.8,4
2018/8/22 5:32,3.7,5,3.8,5,4.9,5
2018/8/22 5:33,3.6,5,3.7,5,5.4,5
2018/8/22 5:34,3.6,5,3.7,5,4.4,4
2018/8/22 5:35,3.5,5,3.6,5,3.7,3
2018/8/22 5:36,3.3,5,3.4,5,5.1,6
2018/8/22 5:37,3.2,5,3.3,5,4.8,6
2018/8/22 5:38,3.1,5,3.2,5,4.1,4
2018/8/22 5:39,3.2,5,3.2,5,6.2,5
2018/8/22 5:40,3.2,4,3.2,5,5.1,4
2018/8/22 5:41,3.3,4,3.3,5,4.7,5
2018/8/22 5:42,3.1,4,3.3,5,3.9,3
2018/8/22 5:43,3.1,4,3.1,5,4.7,5
2018/8/22 5:44,3,4,3.1,5,4.9,6
2018/8/22 5:45,3,4,3,5,3.5,5
2018/8/22 5:46,2.8,4,3,5,3,5
2018/8/22 5:47,2.8,4,2.8,4,5.2,5
2018/8/22 5:48,2.9,4,2.9,4,5.8,5
2018/8/22 5:49,2.9,4,2.9,4,4.2,5
2018/8/22 5:50,2.9,4,2.9,4,4.4,4
2018/8/22 5:51,2.9,5,2.9,4,4.7,5
2018/8/22 5:52,3,5,3,4,4.1,5
2018/8/22 5:53,3,5,3,4,3.9,4
2018/8/22 5:54,3,5,3,4,4.9,5
2018/8/22 5:55,3.2,5,3.2,5,6,4
2018/8/22 5:56,3.3,5,3.3,5,5.6,6
2018/8/22 5:57,3.2,5,3.3,5,3.3,4
2018/8/22 5:58,3,4,3.2,5,3.6,5
2018/8/22 5:59,3.1,5,3.1,5,5.5,4
2018/8/22 6:00,3.1,5,3.1,5,4.7,4
2018/8/22 6:01,3.1,4,3.1,5,5,4
2018/8/22 6:02,3.1,4,3.1,5,4.7,5
2018/8/22 6:03,3.2,4,3.2,5,5.2,5
2018/8/22 6:04,3.3,4,3.3,5,4.5,5
2018/8/22 6:05,3.2,4,3.2,5,3.7,4
2018/8/22 6:06,3.2,4,3.2,5,5.1,3
2018/8/22 6:07,3.3,4,3.3,4,5.5,4
2018/8/22 6:08,3.4,4,3.4,4,3.9,5
2018/8/22 6:09,3.3,4,3.4,4,3.8,4
2018/8/22 6:10,3.3,4,3.3,4,4.8,5
2018/8/22 6:11,3.3,4,3.3,4,5,6
2018/8/22 6:12,3.3,4,3.3,4,5.1,5
2018/8/22 6:13,3.3,4,3.3,4,4.9,4
2018/8/22 6:14,3.2,5,3.3,4,4.4,4
2018/8/22 6:15,3.1,5,3.2,4,3.6,3
2018/8/22 6:16,3,5,3.1,4,3.7,6
2018/8/22 6:17,2.9,5,3,4,4.8,6
2018/8/22 6:18,2.9,5,3,4,4.5,4
2018/8/22 6:19,3,5,3,4,4.7,4
2018/8/22 6:20,3,5,3.1,4,5.4,5
2018/8/22 6:21,3.1,5,3.1,4,5.4,5
2018/8/22 6:22,3,5,3.1,4,4.7,4
2018/8/22 6:23,3.1,5,3.1,4,4.7,3
2018/8/22 6:24,3.2,4,3.2,5,5.8,5
2018/8/22 6:25,3.3,5,3.3,5,5.7,5
2018/8/22 6:26,3.5,4,3.5,4,7.1,4
2018/8/22 6:27,3.6,4,3.6,4,6.2,5
2018/8/22 6:28,3.8,4,3.8,4,7.8,4
2018/8/22 6:29,3.8,5,3.8,4,3.9,4
2018/8/22 6:30,3.8,5,3.8,4,5.1,5
2018/8/22 6:31,3.9,4,3.9,5,7.6,5
2018/8/22 6:32,3.9,5,3.9,5,4.7,4
2018/8/22 6:33,3.8,5,3.9,5,5,4
2018/8/22 6:34,3.8,5,3.8,5,6.1,5
2018/8/22 6:35,3.9,5,3.9,5,6.4,4
2018/8/22 6:36,3.8,5,3.9,5,4.9,5
2018/8/22 6:37,3.6,5,3.8,5,3.6,4
2018/8/22 6:38,3.4,5,3.6,5,3.6,5
2018/8/22 6:39,3.3,5,3.4,5,3.2,5
2018/8/22 6:40,3.2,5,3.3,5,3.7,5
2018/8/22 6:41,3,5,3.2,4,4.7,4
2018/8/22 6:42,2.9,5,3,5,3.6,5
2018/8/22 6:43,3,5,3,5,6.2,4
2018/8/22 6:44,3,5,3,5,5.5,5
2018/8/22 6:45,2.8,5,3,5,3.5,5
2018/8/22 6:46,2.8,5,2.8,5,5.4,5
2018/8/22 6:47,2.9,5,2.9,5,5.8,5
2018/8/22 6:48,2.9,5,2.9,5,3.9,5
2018/8/22 6:49,3.1,5,3.1,5,5.4,5
2018/8/22 6:50,3.2,5,3.2,5,6.2,6
2018/8/22 6:51,3.2,5,3.2,5,4.4,7
2018/8/22 6:52,3.2,5,3.2,5,4.1,6
2018/8/22 6:53,3.1,5,3.2,5,4.2,5
2018/8/22 6:54,3.1,5,3.1,5,4.7,5
2018/8/22 6:55,3.1,5,3.1,5,4.7,5
2018/8/22 6:56,3.1,5,3.2,5,4.1,5
2018/8/22 6:57,3.1,5,3.1,5,5.5,6
2018/8/22 6:58,3.3,5,3.3,5,7.1,6
2018/8/22 6:59,3.2,6,3.3,5,4.3,6
2018/8/22 7:00,3.1,6,3.2,5,4.1,5
2018/8/22 7:01,3.2,5,3.2,5,6.9,4
2018/8/22 7:02,3.4,5,3.4,5,5.7,5
2018/8/22 7:03,3.5,5,3.5,5,6.3,5
2018/8/22 7:04,3.6,5,3.6,5,8.3,5
2018/8/22 7:05,3.6,5,3.7,5,6.5,6
2018/8/22 7:06,3.9,5,3.9,5,8.6,5
2018/8/22 7:07,3.8,5,3.9,5,5.8,5
2018/8/22 7:08,3.6,5,3.8,5,5.1,4
2018/8/22 7:09,3.7,5,3.7,5,6.7,4
2018/8/22 7:10,3.9,5,3.9,5,8.6,4
2018/8/22 7:11,4.1,5,4.1,5,7.1,4
2018/8/22 7:12,4,5,4.1,5,5.8,7
2018/8/22 7:13,4.1,5,4.1,5,7.5,5
2018/8/22 7:14,3.9,5,4,5,7.9,4
2018/8/22 7:15,4,5,4,5,5.8,4
2018/8/22 7:16,3.9,5,3.9,5,7.7,5
2018/8/22 7:17,3.9,5,3.9,5,6.3,6
2018/8/22 7:18,4,5,4,5,5.2,5
2018/8/22 7:19,4.2,5,4.2,5,8.9,5
2018/8/22 7:20,4.3,5,4.3,5,8.3,6
2018/8/22 7:21,4.3,5,4.3,5,7.2,6
2018/8/22 7:22,4.3,5,4.3,5,5.4,5
2018/8/22 7:23,4.2,5,4.3,5,5.4,6
2018/8/22 7:24,4.4,5,4.4,5,7.9,6
2018/8/22 7:25,4.4,5,4.4,5,7,5
2018/8/22 7:26,4.5,6,4.5,6,7.9,6
2018/8/22 7:27,4.6,5,4.6,5,6.9,5
2018/8/22 7:28,4.6,6,4.6,5,6,6
2018/8/22 7:29,4.2,6,4.5,5,7.2,6
2018/8/22 7:30,4,6,4.2,5,6.4,6
2018/8/22 7:31,3.8,6,4,5,5.2,6
2018/8/22 7:32,3.9,6,3.9,5,6.1,6
2018/8/22 7:33,3.8,6,3.9,5,4.4,7
2018/8/22 7:34,3.5,6,3.7,5,6.2,4
2018/8/22 7:35,3.6,6,3.7,5,7.7,6
2018/8/22 7:36,3.4,6,3.6,5,5.4,6
2018/8/22 7:37,3.4,6,3.4,5,6.7,5
2018/8/22 7:38,3.3,6,3.4,6,4.7,6
2018/8/22 7:39,3.2,6,3.4,6,3.7,7
2018/8/22 7:40,3.1,6,3.2,6,4.2,7
2018/8/22 7:41,3,6,3.1,6,3.9,7
2018/8/22 7:42,3,6,3,6,6.7,3
2018/8/22 7:43,3.2,6,3.2,6,7.2,6
2018/8/22 7:44,3.3,6,3.3,6,6.4,6
2018/8/22 7:45,3.3,6,3.3,6,7.4,7
2018/8/22 7:46,3.2,6,3.3,6,5.2,5
2018/8/22 7:47,3.1,6,3.2,6,4.4,6
2018/8/22 7:48,3.4,6,3.4,6,10.1,7
2018/8/22 7:49,3.6,6,3.6,6,8.2,6
2018/8/22 7:50,3.6,6,3.6,6,4.4,5
2018/8/22 7:51,3.8,6,3.8,6,6.9,6
2018/8/22 7:52,3.9,6,3.9,6,7.2,5
2018/8/22 7:53,4,6,4,6,7.6,6
2018/8/22 7:54,4.2,6,4.2,6,8.6,6
2018/8/22 7:55,4.2,6,4.3,6,7.1,8
2018/8/22 7:56,4.4,6,4.4,6,8.2,6
2018/8/22 7:57,4.5,6,4.6,6,8.2,6
2018/8/22 7:58,4.3,6,4.5,6,7.2,7
2018/8/22 7:59,4.3,6,4.3,6,8.1,6
2018/8/22 8:00,4.6,6,4.6,6,7.5,6
2018/8/22 8:01,4.7,6,4.7,6,7.6,5
2018/8/22 8:02,4.7,6,4.7,6,7.1,6
2018/8/22 8:03,4.6,6,4.7,6,6.9,7
2018/8/22 8:04,4.6,6,4.6,6,9,7
2018/8/22 8:05,4.5,6,4.6,6,7.4,8
2018/8/22 8:06,4.2,7,4.4,6,8.6,8
2018/8/22 8:07,4,7,4.2,6,4.5,7
2018/8/22 8:08,3.9,7,4,6,3.6,6
2018/8/22 8:09,3.8,7,3.9,6,4.8,6
2018/8/22 8:10,3.7,7,3.8,6,4.9,5
2018/8/22 8:11,3.5,6,3.6,6,6,5
2018/8/22 8:12,3.4,7,3.5,6,6,6
2018/8/22 8:13,3.6,6,3.6,6,9,5
2018/8/22 8:14,3.5,6,3.6,6,7.8,6
2018/8/22 8:15,3.6,6,3.6,6,6.3,6
2018/8/22 8:16,3.9,6,3.9,7,8.1,7
2018/8/22 8:17,3.8,6,3.9,7,6.1,6
2018/8/22 8:18,3.9,6,3.9,7,5.6,7
2018/8/22 8:19,3.8,6,3.9,6,4.7,6
2018/8/22 8:20,3.8,6,3.8,6,4.5,7
2018/8/22 8:21,3.6,6,3.8,6,3.1,6
2018/8/22 8:22,3.7,6,3.7,6,7.1,5
2018/8/22 8:23,3.4,6,3.7,6,6.3,6
2018/8/22 8:24,3.1,6,3.4,6,4.2,5
2018/8/22 8:25,3.2,6,3.2,6,8.7,6
2018/8/22 8:26,3.3,6,3.3,6,10.5,6
2018/8/22 8:27,3.8,6,3.8,6,10.7,5
2018/8/22 8:28,4,6,4,6,8.3,8
2018/8/22 8:29,4.3,6,4.3,6,9.2,8
2018/8/22 8:30,4.3,6,4.4,6,6.2,7
2018/8/22 8:31,4.6,7,4.6,7,6.8,6
2018/8/22 8:32,4.5,6,4.6,7,7.6,4
2018/8/22 8:33,4.5,7,4.5,7,7.7,4
2018/8/22 8:34,4.7,7,4.7,7,7.7,5
2018/8/22 8:35,4.8,7,4.9,7,9.8,7
2018/8/22 8:36,4.8,7,4.8,7,9.7,5
2018/8/22 8:37,4.8,7,4.8,7,11.5,7
2018/8/22 8:38,4.9,6,4.9,7,9.4,7
2018/8/22 8:39,5,6,5,6,9.3,9
2018/8/22 8:40,5,6,5,6,6.5,9
2018/8/22 8:41,4.9,7,5,6,7.4,8
2018/8/22 8:42,5.1,7,5.1,7,9.3,7
2018/8/22 8:43,5.1,7,5.1,7,8.2,8
2018/8/22 8:44,5,7,5.1,7,5.4,7
2018/8/22 8:45,4.8,7,5,7,5.6,7
2018/8/22 8:46,4.4,7,4.7,7,4.9,5
2018/8/22 8:47,4,7,4.4,7,6,6
2018/8/22 8:48,3.7,7,4,7,7.4,6
2018/8/22 8:49,3.6,7,3.7,7,8.3,6
2018/8/22 8:50,3.9,7,3.9,7,9.7,6
2018/8/22 8:51,4.2,7,4.2,7,9.9,6
2018/8/22 8:52,4.2,7,4.4,7,9.2,6
2018/8/22 8:53,4.4,7,4.4,7,9.8,3
2018/8/22 8:54,4.8,6,4.8,7,10.9,7
2018/8/22 8:55,4.9,6,4.9,6,8.9,7
2018/8/22 8:56,5.1,6,5.1,6,9.3,6
2018/8/22 8:57,5.2,6,5.2,6,7.7,6
2018/8/22 8:58,5.4,6,5.4,6,6.2,6
2018/8/22 8:59,5.1,6,5.4,6,5.4,8
2018/8/22 9:00,5.1,7,5.1,6,7.8,8
2018/8/22 9:01,4.9,7,5.1,6,8.1,7
2018/8/22 9:02,4.8,7,4.8,6,6.9,8
2018/8/22 9:03,4.5,7,4.7,6,6.9,8
2018/8/22 9:04,4.2,7,4.5,6,8.3,6
2018/8/22 9:05,4.4,7,4.4,6,9.5,9
2018/8/22 9:06,4.4,7,4.4,6,8.5,7
2018/8/22 9:07,4.3,7,4.4,6,7.9,8
2018/8/22 9:08,4.3,8,4.3,6,9.1,7
2018/8/22 9:09,4.4,7,4.4,6,7.7,4
2018/8/22 9:10,4.3,7,4.4,7,8.7,5
2018/8/22 9:11,4.2,7,4.3,7,7.1,9
2018/8/22 9:12,4.4,7,4.4,7,9.9,9
2018/8/22 9:13,4.4,7,4.4,7,6.4,7
2018/8/22 9:14,4.3,7,4.4,7,4.4,7
2018/8/22 9:15,4.1,7,4.2,7,6.8,5
2018/8/22 9:16,3.8,7,4.1,7,5.7,6
2018/8/22 9:17,4,7,4,7,9.5,6
2018/8/22 9:18,4,7,4.1,7,9.5,8
2018/8/22 9:19,3.9,7,4,7,7,5
2018/8/22 9:20,3.7,7,3.9,7,7.8,6
2018/8/22 9:21,3.7,7,3.7,7,6.7,6
2018/8/22 9:22,3.5,7,3.7,7,6.2,7
2018/8/22 9:23,3.6,7,3.6,7,7.5,6
2018/8/22 9:24,4,6,4,7,10.6,6
2018/8/22 9:25,4.2,7,4.2,7,9.9,6
2018/8/22 9:26,4.3,7,4.3,7,7.4,5
2018/8/22 9:27,3.9,7,4.2,7,7.4,8
2018/8/22 9:28,4.2,7,4.2,7,10.6,7
2018/8/22 9:29,4.3,7,4.3,7,8.9,8
2018/8/22 9:30,4.5,7,4.5,7,8.3,6
2018/8/22 9:31,4.6,7,4.6,7,6.8,8
2018/8/22 9:32,4.7,7,4.7,7,9.4,7
2018/8/22 9:33,4.5,7,4.7,7,5.1,5
2018/8/22 9:34,4.5,7,4.6,7,9.4,9
2018/8/22 9:35,4.5,7,4.6,7,11,8
2018/8/22 9:36,4.9,7,4.9,7,12.3,7
2018/8/22 9:37,5.5,7,5.5,7,14,8
2018/8/22 9:38,5.6,7,5.7,7,11.8,8
2018/8/22 9:39,5.5,7,5.6,7,5.7,8
2018/8/22 9:40,5.4,7,5.5,7,9.9,7
2018/8/22 9:41,5.7,7,5.7,7,13.2,6
2018/8/22 9:42,5.7,7,5.7,7,8.9,7
2018/8/22 9:43,6,7,6,7,9.2,6
2018/8/22 9:44,5.8,7,6,7,8.3,6
2018/8/22 9:45,5.8,7,5.9,7,10.2,8
2018/8/22 9:46,5.5,7,5.8,7,9.4,8
2018/8/22 9:47,5,7,5.5,7,6,6
2018/8/22 9:48,4.7,7,4.9,7,5.8,7
2018/8/22 9:49,4.8,7,4.8,7,8.5,5
2018/8/22 9:50,4.6,7,4.9,7,5.8,8
2018/8/22 9:51,4.5,7,4.6,7,8.2,5
2018/8/22 9:52,4.5,7,4.5,7,8.4,7
2018/8/22 9:53,4.6,7,4.6,7,10.1,8
2018/8/22 9:54,4.7,7,4.7,7,10.1,8
2018/8/22 9:55,4.7,7,4.7,7,7.1,6
2018/8/22 9:56,4.8,7,4.8,7,7.9,6
2018/8/22 9:57,5,7,5,7,7,6
2018/8/22 9:58,4.9,7,4.9,7,5.7,8
2018/8/22 9:59,4.7,7,4.9,7,6.7,8
2018/8/22 10:00,5.3,7,5.3,7,11.1,8
2018/8/22 10:01,5.5,7,5.5,7,12.8,8
2018/8/22 10:02,5.4,7,5.5,7,7.8,6
2018/8/22 10:03,5,7,5.3,7,9.5,9
2018/8/22 10:04,5.1,7,5.1,7,11.1,6
2018/8/22 10:05,5.1,7,5.1,7,9.2,6
2018/8/22 10:06,4.7,7,5,7,8.1,4
2018/8/22 10:07,4.7,7,4.7,7,9.5,8
2018/8/22 10:08,4.8,7,4.8,7,8.4,8
2018/8/22 10:09,4.9,7,4.9,7,8.6,7
2018/8/22 10:10,4.7,7,5,7,8.3,7
2018/8/22 10:11,4.1,7,4.5,7,4.7,8
2018/8/22 10:12,4.3,8,4.3,7,9.1,7
2018/8/22 10:13,4.5,7,4.5,7,8.5,8
2018/8/22 10:14,4.3,7,4.5,7,7.2,8
2018/8/22 10:15,4.5,7,4.5,7,11,8
2018/8/22 10:16,4.7,7,4.7,7,7.1,7
2018/8/22 10:17,5,7,5,7,10.8,7
2018/8/22 10:18,5.1,7,5.2,7,9.9,8
2018/8/22 10:19,5.3,7,5.3,7,10,6
2018/8/22 10:20,5.3,7,5.3,7,7.7,8
2018/8/22 10:21,5.5,7,5.5,7,8.9,8
2018/8/22 10:22,5.2,7,5.5,7,7,8
2018/8/22 10:23,5.2,7,5.2,7,8.7,6
2018/8/22 10:24,5.3,7,5.3,7,10.2,7
2018/8/22 10:25,5.3,7,5.4,7,10.1,5
2018/8/22 10:26,5.4,7,5.5,7,10.1,6
2018/8/22 10:27,5.1,7,5.4,7,7,8
2018/8/22 10:28,4.9,7,5.1,7,6.8,6
2018/8/22 10:29,4.8,6,4.9,7,8.7,6
2018/8/22 10:30,4.7,6,4.8,7,5.4,7
2018/8/22 10:31,4.8,6,4.8,7,7.9,6
2018/8/22 10:32,4.8,6,4.8,7,6.9,10
2018/8/22 10:33,5.1,6,5.2,7,14.1,8
2018/8/22 10:34,4.8,6,5.1,7,5.2,8
2018/8/22 10:35,4.7,7,4.8,7,8.3,7
2018/8/22 10:36,4.6,7,4.6,7,10.9,8
2018/8/22 10:37,4.7,7,4.7,6,8.5,8
2018/8/22 10:38,4.7,7,4.7,6,7.1,6
2018/8/22 10:39,4.6,7,4.7,6,8.1,6
2018/8/22 10:40,4.7,7,4.7,6,8.5,5
2018/8/22 10:41,4.6,7,4.7,6,10.8,8
2018/8/22 10:42,4.8,7,4.8,6,9.3,5
2018/8/22 10:43,4.8,7,4.8,6,11.3,6
2018/8/22 10:44,5.1,7,5.1,7,10.3,6
2018/8/22 10:45,5,7,5.1,7,7.6,8
2018/8/22 10:46,4.8,7,5,7,7.1,8
2018/8/22 10:47,4.9,7,4.9,7,12.4,6
2018/8/22 10:48,4.9,7,5,7,8.5,7
2018/8/22 10:49,5.1,7,5.1,7,9.1,8
2018/8/22 10:50,5.1,7,5.2,7,7.6,8
2018/8/22 10:51,5.1,7,5.1,7,7.6,8
2018/8/22 10:52,5.1,7,5.2,7,9.2,8
2018/8/22 10:53,4.9,7,5.2,7,7.1,7
2018/8/22 10:54,4.7,7,4.9,7,6.7,7
2018/8/22 10:55,5,7,5,7,10.7,8
2018/8/22 10:56,5.2,7,5.2,7,10.9,7
2018/8/22 10:57,4.9,8,5.2,7,8.3,8
2018/8/22 10:58,5.1,8,5.1,7,9.4,7
2018/8/22 10:59,5.1,8,5.1,7,8.1,7
2018/8/22 11:00,5.1,8,5.1,7,7.8,6
2018/8/22 11:01,5.1,8,5.2,7,7.5,7
2018/8/22 11:02,4.8,8,5.1,7,5.8,8
2018/8/22 11:03,4.6,8,4.8,7,4.7,8
2018/8/22 11:04,4.6,8,4.7,7,6.8,5
2018/8/22 11:05,4.4,8,4.6,7,7.6,7
2018/8/22 11:06,4.2,8,4.4,7,7.7,8
2018/8/22 11:07,4.4,8,4.4,8,7.6,8
2018/8/22 11:08,4.2,8,4.4,8,8.1,9
2018/8/22 11:09,4.3,8,4.3,8,11.4,7
2018/8/22 11:10,4.5,8,4.5,8,10.9,7
2018/8/22 11:11,4.6,8,4.6,8,8.4,8
2018/8/22 11:12,4.9,8,4.9,8,7.9,8
2018/8/22 11:13,5.1,8,5.1,8,5.2,8
2018/8/22 11:14,5,8,5.1,8,8.2,7
2018/8/22 11:15,5,8,5,8,6.9,7
2018/8/22 11:16,5.1,8,5.1,8,7.7,8
2018/8/22 11:17,5.3,8,5.3,8,11.9,7
2018/8/22 11:18,5.5,8,5.5,8,11.4,9
2018/8/22 11:19,5.4,8,5.5,8,11.1,8
2018/8/22 11:20,5.2,7,5.4,8,9.3,7
2018/8/22 11:21,5,7,5.2,8,9.9,6
2018/8/22 11:22,4.8,7,5,8,6.3,7
2018/8/22 11:23,4.9,7,4.9,8,7.5,9
2018/8/22 11:24,4.8,8,4.9,8,7,9
2018/8/22 11:25,5,8,5,8,11.5,8
2018/8/22 11:26,5,8,5,8,10.1,8
2018/8/22 11:27,5.2,8,5.2,8,11.4,8
2018/8/22 11:28,5.2,8,5.2,8,11.8,7
2018/8/22 11:29,5,7,5.1,8,8.1,7
2018/8/22 11:30,5.2,8,5.2,7,10.7,8
2018/8/22 11:31,5.1,8,5.1,8,7.6,9
2018/8/22 11:32,5.3,8,5.3,8,8.5,8
2018/8/22 11:33,5.3,8,5.4,8,9.5,8
2018/8/22 11:34,5.3,8,5.4,8,6.2,6
2018/8/22 11:35,5,7,5.4,8,4.9,7
2018/8/22 11:36,4.9,7,5,8,6.1,4
2018/8/22 11:37,4.6,7,4.9,8,6.8,7
2018/8/22 11:38,4.3,7,4.5,8,6.7,6
2018/8/22 11:39,4.2,7,4.3,8,5,5
2018/8/22 11:40,3.9,7,4.2,8,8.2,8
2018/8/22 11:41,3.7,7,3.9,8,9.7,8
2018/8/22 11:42,3.7,7,3.8,8,6.8,8
2018/8/22 11:43,3.8,7,3.8,8,9.4,8
2018/8/22 11:44,4,7,4,8,7.7,7
2018/8/22 11:45,4.2,7,4.2,7,7.2,8
2018/8/22 11:46,4.1,7,4.2,7,5.4,8